Location: Dana
(41.8364°N, 106.7042°W)
Time: 04:46:23
(UTC+00:00)

Transit 2A - All Passes

Search period start: 10 May 2026 00:00
Search period end: 20 May 2026 00:00
Orbit: 593 x 950 km, 66.7° (Epoch: 9 May)

Date Brightness Start Highest point End Pass type
(mag) Time Alt. Az. Time Alt. Az. Time Alt. Az.
10 May - 01:40:41 10° W 01:45:20 22° NW 01:49:46 10° N daylight
10 May - 07:01:19 10° NNE 07:03:09 12° NE 07:04:55 10° NE visible
10 May - 08:42:23 10° NNW 08:47:21 63° ENE 08:51:50 10° SE visible
10 May - 10:27:13 10° WNW 10:29:37 14° WSW 10:31:54 10° SW visible
10 May - 23:19:15 10° S 23:25:18 54° ESE 23:31:03 10° NE daylight
11 May - 01:03:19 10° WSW 01:08:38 30° NW 01:13:41 10° NNE daylight
11 May - 08:06:05 10° NNW 08:10:50 41° NE 08:15:09 10° ESE visible
11 May - 09:49:46 10° WNW 09:53:29 22° WSW 09:56:59 10° SSW visible
11 May - 22:43:21 10° S 22:48:59 37° ESE 22:54:23 10° NE daylight
12 May - 00:26:14 10° WSW 00:32:02 41° NW 00:37:30 10° NNE daylight
12 May - 07:29:54 10° NNW 07:34:13 28° NE 07:38:11 10° ESE visible
12 May - 09:12:51 10° NW 09:17:17 36° WSW 09:21:23 10° S visible
12 May - 22:07:49 10° SSE 22:12:44 25° ESE 22:17:28 10° NE daylight
12 May - 23:49:23 10° SW 23:55:29 58° NW 00:01:14 10° NNE daylight
13 May - 01:36:51 10° WNW 01:39:41 13° NW 01:42:27 10° N daylight
13 May - 06:53:51 10° N 06:57:30 20° NE 07:00:56 10° E visible
13 May - 08:36:11 10° NW 08:41:00 59° WSW 08:45:23 10° SSE visible
13 May - 21:32:49 10° SE 21:36:32 17° ESE 21:40:10 10° ENE daylight
13 May - 23:12:46 10° SSW 23:19:00 82° WNW 23:24:52 10° NNE daylight
14 May - 00:58:51 10° W 01:02:52 18° NW 01:06:43 10° N daylight
14 May - 06:18:01 10° N 06:20:42 14° NE 06:23:17 10° ENE visible
14 May - 07:59:41 10° NNW 08:04:38 86° ENE 08:09:07 10° SSE visible
14 May - 20:59:38 10° ESE 21:00:24 10° ESE 21:01:11 10° E daylight
14 May - 22:36:25 10° SSW 22:42:35 70° ESE 22:48:25 10° NE daylight
15 May - 00:21:16 10° W 00:26:07 24° NW 00:30:44 10° N daylight
15 May - 05:43:01 10° NNE 05:43:50 10° NNE 05:44:39 10° NE visible
15 May - 07:23:18 10° NNW 07:28:10 54° NE 07:32:35 10° SE visible
15 May - 09:07:41 10° WNW 09:10:33 16° WSW 09:13:18 10° SW visible
15 May - 22:00:19 10° S 22:06:14 47° ESE 22:11:51 10° NE daylight
15 May - 23:44:00 10° WSW 23:49:28 33° NW 23:54:37 10° NNE daylight
16 May - 06:47:03 10° NNW 06:51:37 35° NE 06:55:47 10° ESE visible
16 May - 08:30:27 10° NW 08:34:24 26° WSW 08:38:05 10° SSW visible
16 May - 21:24:31 10° S 21:29:56 32° ESE 21:35:06 10° NE daylight
16 May - 23:06:59 10° SW 23:12:52 46° NW 23:18:23 10° NNE daylight
17 May - 00:55:52 10° NW 00:57:19 11° NNW 00:58:44 10° NNW daylight
17 May - 06:10:54 10° N 06:14:57 24° NE 06:18:44 10° ESE visible
17 May - 07:53:38 10° NW 07:58:10 42° WSW 08:02:21 10° S visible
17 May - 20:49:08 10° SSE 20:53:41 22° ESE 20:58:05 10° ENE daylight
17 May - 22:30:13 10° SW 22:36:21 65° WNW 22:42:06 10° NNE daylight
18 May - 00:17:14 10° WNW 00:20:26 15° NW 00:23:31 10° N daylight
18 May - 05:34:55 10° N 05:38:13 17° NE 05:41:21 10° E visible
18 May - 07:17:01 10° NW 07:21:51 70° WSW 07:26:15 10° SSE visible
18 May - 20:14:26 10° SE 20:17:31 14° ESE 20:20:31 10° ENE daylight
18 May - 21:53:41 10° SSW 21:59:54 88° ESE 22:05:43 10° NNE daylight
18 May - 23:39:23 10° W 23:43:38 20° NW 23:47:41 10° N daylight
19 May - 04:59:15 10° N 05:01:24 13° NE 05:03:29 10° ENE visible
19 May - 06:40:34 10° NNW 06:45:27 74° ENE 06:49:54 10° SE visible
19 May - 08:26:15 10° W 08:27:35 11° WSW 08:28:54 10° WSW visible
19 May - 21:17:24 10° SSW 21:23:30 62° ESE 21:29:13 10° NE daylight
19 May - 23:01:54 10° WSW 23:06:55 26° NW 23:11:40 10° N daylight
